CDT,Max TemperatureF,Mean TemperatureF,Min TemperatureF,Max Dew PointF,MeanDew PointF,Min DewpointF,Max Humidity, Mean Humidity, Min Humidity, Max Sea Level PressureIn, Mean Sea Level PressureIn, Min Sea Level PressureIn, Max VisibilityMiles, Mean VisibilityMiles, Min VisibilityMiles, Max Wind SpeedMPH, Mean Wind SpeedMPH, Max Gust SpeedMPH,PrecipitationIn, CloudCover, Events, WindDirDegrees
2012-9-1,82,66,53,56,53,50,90,65,36,30.19,30.11,30.02,10,10,2,10,2,18,0.01,0,,83
2012-9-2,87,72,61,65,58,49,78,58,43,30.01,29.89,29.81,10,10,10,16,9,26,0.00,0,,165
2012-9-3,87,70,55,65,55,43,94,72,23,29.93,29.90,29.84,10,6,0,7,1,,0.00,0,Fog,304
2012-9-4,84,72,60,60,56,52,83,59,37,29.86,29.80,29.77,10,10,10,14,4,,0.00,0,,251
2012-9-5,75,66,54,57,48,41,81,53,29,29.89,29.84,29.77,10,10,10,15,5,25,0.00,1,Rain,283
2012-9-6,78,62,46,56,49,44,90,68,32,29.97,29.93,29.89,10,9,2,9,5,,0.21,3,Rain,266
2012-9-7,64,58,52,53,47,42,90,70,46,30.06,30.02,29.94,10,10,2,17,6,23,0.05,3,,323
2012-9-8,69,56,43,50,45,41,93,67,36,30.09,29.97,29.86,10,10,9,23,8,38,0.02,4,,297
2012-9-9,71,59,48,50,48,44,94,74,41,30.22,30.16,30.07,10,8,1,9,4,,0.00,2,,308
2012-9-10,82,66,52,48,46,45,77,49,30,30.06,29.87,29.73,10,10,10,24,12,36,0.00,0,,0
2012-9-11,87,74,63,54,50,39,63,48,32,29.89,29.73,29.64,10,10,10,16,11,31,0.00,0,,208
2012-9-12,69,62,52,39,34,26,47,37,21,30.23,30.10,29.95,10,10,10,13,7,20,0.00,1,Rain,271
2012-9-13,71,54,36,40,33,23,86,48,16,30.34,30.30,30.23,10,10,10,10,4,17,0.00,1,,306
2012-9-14,70,52,35,42,35,27,100,66,20,30.38,30.34,30.28,10,7,1,8,2,,0.00,1,,30
2012-9-15,80,61,42,49,43,39,93,62,27,30.27,30.09,29.87,10,9,1,13,3,16,0.00,0,,152
2012-9-16,75,64,51,50,44,33,83,52,22,30.04,29.92,29.84,10,10,10,16,9,21,0.15,2,Rain,332
2012-9-17,59,50,44,46,38,31,80,62,37,30.06,30.02,29.98,10,10,10,14,8,20,0.00,4,Rain,346
2012-9-18,57,46,36,38,33,29,83,58,36,30.06,29.99,29.82,10,10,10,10,4,,0.00,3,,246
2012-9-19,66,57,50,47,39,31,69,55,43,29.82,29.71,29.61,10,10,5,18,12,29,0.09,4,Rain,255
2012-9-20,62,54,48,44,37,29,83,56,30,29.92,29.88,29.82,10,10,5,16,11,21,0.08,3,Rain,294
2012-9-21,61,50,39,42,36,27,93,67,31,29.93,29.86,29.79,10,10,5,22,8,39,0.04,3,Rain,307
2012-9-22,55,46,37,37,31,27,87,60,35,30.28,30.16,29.92,10,10,4,18,13,28,0.01,4,Rain,343
2012-9-23,59,44,30,35,28,24,89,60,27,30.34,30.26,30.14,10,10,10,13,3,,0.00,0,,271
2012-9-24,78,55,33,42,32,26,75,44,21,30.12,29.87,29.70,10,10,10,18,7,26,0.00,0,,260
2012-9-25,63,50,37,38,35,31,93,63,32,30.02,29.93,29.86,10,10,10,10,3,,0.00,0,,6
2012-9-26,61,45,30,38,33,29,96,75,31,30.25,30.12,30.02,10,6,0,8,2,,0.00,1,Fog,21
2012-9-27,68,47,28,41,32,27,93,67,26,30.31,30.25,30.19,10,7,0,10,1,,0.00,0,Fog,193
2012-9-28,82,59,37,46,37,32,89,54,18,30.22,30.15,30.08,10,10,9,13,3,17,0.00,0,,234
2012-9-29,81,61,42,48,43,39,89,59,25,30.15,30.10,30.04,10,10,5,5,0,,0.00,0,,75
2012-9-30,82,62,44,43,40,37,86,49,21,30.04,29.96,29.86,10,10,10,9,3,,0.00,0,,178